Showing default

CANX-5, 40056

Orbit data source: Space-Track

CANX-5, 40056 is a payload satellite owned by UTIAS-SFL (CA) in SSO that was launched on Mon, 30 Jun 2014 UTC via a PSLV launch vehicle from the Sirharikota (SRI). Payloads include a variety of satellites, spacecraft, and rockets equipped with specific instruments for various scientific and technological missions. These include communications satellites like Starlink; space stations such as the ISS; scientific satellites like the Hubble; Earth observation satellites from companies like Planet Labs, Umbra, and HawkEye 360; GPS; miniature CubeSats for education and research; and military/defense satellites.

Loading next visibility...
CANX-5 details
Identifier
40056, 2014-034D
Orbit
SSO
Last TLE update19 hours ago
Origin
Flag of CAUTIAS-SFL (CA)
ManufacturerUTIAS-SFL
MissionOperational Amateur Technology
Bus & MotorGNB, Unknown motor
Mass7 kg wet, 7 kg dry
Launch date (UTC)
2014-06-30 (10 years ago)
Launch vehicle
PSLV
Launch site
Sirharikota (SRI)
Object type
Payload
Rocket body
Debris
Shape & HBRBox + 4 Ant, 0.2 m
Radar Cross Section0.060 m², Medium (>0.1 m² and < 1m²)

Expand to show TLE details & history

TLE from 19 hours ago
0 CANX-5
1 40056U 14034D   24336.54905017  .00003607  00000-0  49207-3 0  9997
2 40056  98.3782 178.3174 0013758  21.2267 338.9511 14.79260759561315
Epoch: 2024-12-01T13:10Z
Definitive object data (Epoch: 2024-12-01T13:10:37.934Z)
Latitude-0.00005°
Longitude-90.22632°
Altitude625.664 km
Speed7.551 km/s
True Right ascension11h 53m 16s
True Declination0° 00' 00"
Sunlit
Object was in daylight at TLE epoch
Visualization TLE readout
Latitude5.31474°
Longitude91.36353°
Altitude642.909 km
Speed7.532 km/s
Apparent Right ascension21h 31m 47s
Apparent Declination-22° 54' 48"
Sunlit
Object is in daylight
Visualization observer readout
Local Sidereal Time05:35:22
Azimuth270.354° WNW
Elevation-37.777°
Doppler factor1
Orbital elements
Apogee altitude638.362 km
Perigee altitude619.082 km
Semi-major axis7,006.859 km
Eccentricity0.0013758
Inclination98.3782°
RAAN178.3174°
Arg. of periapsis21.2267°
True anomaly338.89438°
Mean anomaly338.9511°
Eccentric anomaly338.92275°
Mean motion3.70048 °/min
BSTAR0.00049207
Orbital period97.28 mins
Loading maneuver chart data...
Loading historical data...
Loading historical data...
Loading historical data...
Loading historical data...
Loading historical data...
Loading historical data...
Loading historical data...
Other satellites on launch #34 in the year 2014 (2014-06-30 UTC)

CANX-5 Visibility forecast

Observer location: undefined°, undefined

Span
Click to sort rows by Start time (UTC) header in descending order
Start Az.
Max El. time (UTC)
Max El. Az.
Max El.
End time (UTC)
End Az.
7 mins2024-12-02 13:39:14.306Z166.074° S2024-12-02 13:42:14.306Z169.53° S44.187°2024-12-02 13:46:14.306Z346.584° N
4 mins2024-12-03 01:30:14.306Z69.622° E2024-12-03 01:31:14.306Z85.194° E15.723°2024-12-03 01:34:14.306Z130.185° SE
7 mins2024-12-03 03:05:14.306Z351.885° N2024-12-03 03:08:14.306Z286.201° WNW33.808°2024-12-03 03:12:14.306Z218.542° SW
|